Weather History for Fort Smith, AR

Change the Weather History Date:

Monday, July 1, 2013

  Actual Average Record
Temperature  
Mean Temperature 78 °F 81 °F  
Max Temperature 88 °F 92 °F 104 °F (1894)
Min Temperature 67 °F 71 °F 58 °F (1891)
Cooling Degree Days 13 16  
Month to date cooling degree days 13 16  
Year to date cooling degree days 740 645  
Since 1 June cooling degree days 466 401  
Growing Degree Days 27 (Base 50)    
Moisture  
Dew Point 56 °F    
Average Humidity 54    
Maximum Humidity 78    
Minimum Humidity 29    
Precipitation  
Precipitation 0.00 in 0.13 in 2.30 in (2007)
Month to date precipitation 0.00 0.13  
Year to date precipitation 27.08 23.60  
Sea Level Pressure  
Sea Level Pressure 29.96 in    
Wind  
Wind Speed 8 mph (North)    
Max Wind Speed 18 mph    
Max Gust Speed 23 mph    
Visibility 10 miles    
Events      
T = Trace of Precipitation, MM = Missing Value Source: NWS Daily Summary

Daily Weather History Graph

Daily Weather History Graph

Search for Another Location

Airport:

Trip Planner

Search our weather history database for the weather conditions in past years. The results will help you decide how hot, cold, wet, or windy it might be!

Date:

Astronomy

Jul. 01, 2013 Rise Set
Actual Time 6:06 AM CDT 8:36 PM CDT
Civil Twilight 5:36 AM CDT 9:06 PM CDT
Nautical Twilight 4:59 AM CDT 9:42 PM CDT
Astronomical Twilight 4:19 AM CDT 10:23 PM CDT
Moon 1:28 AM CDT (7/1) 2:59 PM CDT (7/1)
Length of Visible Light 15h 29m
Length of Day
14h 29m
Waning Crescent, 35% of the Moon is Illuminated
Jul 1
Waning Crescent
Jul 8
New
Jul 15
First Quarter
Jul 22
Full
Jul 29
Last Quarter

Hourly Weather History & Observations

Time (CDT) Temp. Heat Index Dew Point Humidity Pressure Visibility Wind Dir Wind Speed Gust Speed Precip Events Conditions
12:53 AM 70.0 °F - 60.1 °F 71% 29.93 in 10.0 mi Calm Calm - N/A   Clear
1:53 AM 70.0 °F - 60.1 °F 71% 29.94 in 10.0 mi NNW 3.5 mph - N/A   Partly Cloudy
2:53 AM 70.0 °F - 59.0 °F 68% 29.93 in 10.0 mi NW 5.8 mph - N/A   Clear
3:53 AM 69.1 °F - 59.0 °F 70% 29.94 in 10.0 mi North 9.2 mph - N/A   Clear
4:53 AM 68.0 °F - 59.0 °F 73% 29.95 in 10.0 mi NNW 4.6 mph - N/A   Clear
5:53 AM 66.9 °F - 59.0 °F 76% 29.95 in 10.0 mi North 5.8 mph - N/A   Scattered Clouds
6:53 AM 68.0 °F - 60.1 °F 76% 29.96 in 10.0 mi NNW 4.6 mph - N/A   Clear
7:53 AM 70.0 °F - 60.1 °F 71% 29.98 in 10.0 mi North 5.8 mph - N/A   Scattered Clouds
8:53 AM 73.9 °F - 61.0 °F 64% 29.99 in 10.0 mi North 6.9 mph - N/A   Mostly Cloudy
9:53 AM 78.1 °F - 61.0 °F 56% 30.00 in 10.0 mi Variable 4.6 mph - N/A   Partly Cloudy
10:53 AM 81.0 °F 81.3 °F 59.0 °F 47% 30.00 in 10.0 mi Variable 3.5 mph - N/A   Mostly Cloudy
11:53 AM 80.1 °F 80.7 °F 59.0 °F 48% 29.99 in 10.0 mi NW 8.1 mph - N/A   Mostly Cloudy
12:53 PM 81.0 °F 81.0 °F 57.0 °F 44% 29.98 in 10.0 mi North 11.5 mph - N/A   Mostly Cloudy
1:53 PM 84.9 °F 83.6 °F 55.0 °F 36% 29.96 in 10.0 mi NNE 15.0 mph 19.6 mph N/A   Mostly Cloudy
2:53 PM 84.0 °F 82.6 °F 54.0 °F 35% 29.96 in 10.0 mi North 13.8 mph 18.4 mph N/A   Mostly Cloudy
3:53 PM 87.1 °F 85.1 °F 54.0 °F 32% 29.95 in 10.0 mi North 13.8 mph 18.4 mph N/A   Partly Cloudy
4:53 PM 87.1 °F - 52.0 °F 30% 29.94 in 10.0 mi NNE 11.5 mph - N/A   Partly Cloudy
5:53 PM 87.1 °F - 51.1 °F 29% 29.94 in 10.0 mi NNE 11.5 mph - N/A   Clear
6:53 PM 84.9 °F - 52.0 °F 32% 29.95 in 10.0 mi NNE 13.8 mph - N/A   Clear
7:53 PM 82.0 °F - 51.1 °F 34% 29.96 in 10.0 mi North 11.5 mph - N/A   Clear
8:53 PM 79.0 °F - 52.0 °F 39% 29.97 in 10.0 mi North 10.4 mph - N/A   Clear
9:53 PM 75.9 °F - 50.0 °F 40% 29.99 in 10.0 mi North 8.1 mph - N/A   Clear
10:53 PM 73.0 °F - 52.0 °F 48% 30.01 in 10.0 mi North 5.8 mph - N/A   Clear
11:53 PM 72.0 °F - 53.1 °F 51% 30.01 in 10.0 mi NE 3.5 mph - N/A   Clear